www.pogodaiklimat.ru

Погода и климат >> Архив погоды >> Россия >> Якутия >> Анабар


ПОГОДА в Анабаре

  • Прогноз погоды в Анабаре
  • Монитор погоды в Анабаре

АРХИВ ПОГОДЫ в Анабаре

Время (UTC), дата Ветер
(напр.,м/с)
 
Видим.   Явления Облачность Т
(С)
Тd
(С)
f
(%)
Тe
(С)
Тes
(С)
Комфортность P
(гПа)
Po
(гПа)
Тmin
(С)
Tmax
(С)
R
(мм)
R24
(мм)
S
(см)
18 12.06 З 11-12
{14}
20 км 4/3 300 м
[Sc Ci fib]
+0.2 -0.6 94 -8 -8 1003.4 1001.7
21 12.06 З 9-10
{13}
20 км 6/0
[Ac trans Ci fib]
+0.9 -0.5 90 -7 -7 1006.4 1004.7
00 13.06 З 8
{10}
20 км 6/6 300 м
[Sc]
+2.3 -0.7 81 -4 -4 1008.8 1007.1 -0.0
03 13.06 З 8
{10}
20 км 8/8 300 м
[Cu Sc]
+3.0 -1.8 71 -3 -3 1010.7 1009.1
06 13.06 З 3
{10}
20 км 3/3 300 м
[Cu Sc]
+5.3 +0.1 69 +2 +7 1011.6 1010.0
09 13.06 В 2 20 км 3/1 300 м
[Sc Ci sp]
+6.1 +1.1 70 +4 +8 1012.4 1010.8
12 13.06 ЮВ 6 20 км 3/0
[Ci fib]
+5.9 +2.5 79 +1 +2 1011.7 1010.1 +7.0
15 13.06 С 11-12
{14}
20 км 9/9 300 м
[Sc]
0.0 -0.3 98 -9 -9 1001.0 999.3
18 13.06 ЮВ 8
{10}
20 км 3/0
[Ci fib]
+4.6 +3.4 92 -2 -1 1010.1 1008.5
21 13.06 ЮВ 9-10
{11}
20 км 4/0
[Ci fib]
+4.1 +3.4 95 -3 -2 1007.9 1006.3
00 14.06 Ю 11-12
{13}
20 км 6/0
[Ci sp]
+7.5 +3.5 76 +2 +2 1005.8 1004.2 +4.1
03 14.06 Ю 11-12
{14}
20 км 8/0
[Ac trans]
+8.2 +4.3 76 +3 +3 1003.2 1001.6
06 14.06 Ю 11-12
{14}
20 км 10/0
[Ac trans Ci fib]
+10.8 +6.3 74 +7 +7 999.9 998.3
09 14.06 Ю 10-11
{13}
20 км 10/0
[Ac trans Ci fib]
+12.1 +7.8 75 +9 +9 998.4 996.8
12 14.06 Ю 8
{12}
20 км 9/0
[Ac trans]
+9.1 +7.2 88 +5 +5 997.3 995.7 +15.9
15 14.06 Ю 10-11
{13}
20 км 10/0
[Ac trans Ci fib]
+9.9 +8.0 88 +5 +5 995.2 993.6
18 14.06 Ю 9-10
{12}
20 км 9/0
[Ac trans]
+9.2 +8.0 92 +4 +4 994.0 992.4
21 14.06 Ю 7
{10}
20 км 10/0
[Ac As]
+12.6 +10.3 86 +10 +10 992.2 990.6
00 15.06 З 11-12
{14}
20 км 10/0
[Ac As]
+7.4 +6.5 94 +2 +2 995.4 993.8 +6.8
03 15.06 З 9-10
{11}
20 км 10/0
[Ac As]
+4.7 +4.5 99 -2 -2 998.7 997.1 +4.7
06 15.06 З 1
{10}
20 км 8/0
[Ac trans Ci sp]
+9.0 +5.7 80 +8 +15 1000.2 998.6
09 15.06 ЮВ 2 20 км 8/0
[Ac trans]
+9.5 +6.7 83 +8 +10 1000.8 999.2
12 15.06 ЮВ 6 20 км 10/0
[Ac As]
+7.2 +5.6 90 +3 +3 1001.7 1000.1 +11.0
15 15.06 ЮВ 8
{10}
20 км 9/3 300 м
[Sc Ac trans]
+7.0 +6.6 97 +2 +2 1001.3 999.7
18 15.06 Ю 6 4000 м дымка 10/10 300 м
[St]
+5.4 +5.2 99 0 0 1001.7 1000.1
21 15.06 Ю 4 20 км в посл. час туман 10/3 300 м
[Sc Ac trans Ci sp]
+7.4 +7.2 99 +4 +4 1002.1 1000.5
00 16.06 З 8
{10}
20 км {туман} 4/1 300 м
[Sc Cc]
+7.7 +3.8 76 +3 +4 1005.5 1003.9 +5.0
03 16.06 З 8
{10}
20 км 6/6 300 м
[Sc]
+7.3 +3.0 74 +2 +3 1008.7 1007.1
06 16.06 З 8
{10}
20 км 10/4 300 м
[Sc Ac und]
+6.3 +2.1 74 +1 +1 1011.3 1009.7
09 16.06 З 7 20 км 10/6 300 м
[Sc Ac und]
+6.7 +2.9 77 +2 +2 1014.0 1012.4
12 16.06 СЗ 4 20 км 10/3 300 м
[Sc Ac und]
+6.6 +3.5 81 +3 +3 1016.5 1014.9 +8.2
15 16.06 З 5 20 км 3/3 300 м
[Sc]
+4.8 +4.6 99 -0 -0 1018.3 1016.7
18 16.06 З 5 20 км ясно +4.8 +3.6 92 -0 0 1019.6 1017.9
21 16.06 ЮЗ 4 20 км 4/0
[Ac trans Ci fib]
+6.5 +4.9 90 +3 +4 1020.8 1019.2
00 17.06 Ю 3 20 км 10/0
[Ci fib]
+8.3 +5.4 82 +6 +9 1020.4 1018.8 +4.3
03 17.06 Ю 5 20 км 6/3 300 м
[Sc Ci fib]
+10.3 +5.3 71 +7 +10 1018.9 1017.3
06 17.06 Ю 6 20 км 10/3 300 м
[Sc Ac trans Ci sp]
+10.9 +6.0 72 +8 +9 1017.8 1016.2
09 17.06 В 10-11
{12}
20 км 10/0
[Ac trans Ci fib]
+12.0 +6.8 70 +8 +9 1015.9 1014.3
12 17.06 ЮВ 11-12
{13}
20 км 10/0
[Ac As]
+11.5 +7.6 77 +7 +7 1013.4 1011.8 +13.0
15 17.06 ЮВ 11-12
{13}
20 км {дождь} 10/0
[Ac As]
+8.7 +7.4 92 +3 +3 1011.0 1009.4
18 17.06 ЮВ 10-11
{12}
10 км слаб. дождь 10/0
[As op]
+8.5 +8.3 99 +3 +3 1009.3 1007.7
21 17.06 Ю 8
{11}
20 км в посл. час дождь 10/0
[Ac As]
+10.1 +9.3 95 +6 +6 1007.3 1005.7
00 18.06 Ю 9-10
{11}
20 км {дождь} 10/0
[Ac trans Ci sp]
+14.2 +10.8 80 +12 +12 1005.7 1004.1 +8.4 1
03 18.06 Ю 11-12
{14}
20 км 10/0
[Ci fib]
+14.8 +10.4 75 +12 +12 1003.1 1001.5
06 18.06 Ю 9-10
{13}
20 км 10/0
[Ac trans Ci fib]
+16.8 +11.9 73 +15 +16 1000.0 998.4
09 18.06 Ю 8
{11}
20 км 10/0
[Ac As]
+17.0 +13.3 79 +16 +16 998.1 996.6
12 18.06 Ю 5 20 км {дождь} 10/3 300 м
[Sc Ac As]
+15.5 +14.1 91 +14 +14 996.4 994.9 +17.7 0.0
15 18.06 Ю 5 20 км 9/3 300 м
[Sc Ac trans]
+16.3 +14.6 90 +15 +15 995.0 993.5
18 18.06 Ю 7 20 км 10/0
[Ac trans Ci fib]
+17.9 +16.6 92 +17 +17 994.9 993.4
21 18.06 З 11-12
{14}
20 км 10/0
[Ac trans Ci fib]
+12.0 +10.9 93 +8 +8 998.1 996.5
00 19.06 З 11-12
{14}
20 км 9/6 300 м
[Sc Ac trans]
+9.8 +8.8 93 +5 +5 1002.9 1001.3 +9.5
03 19.06 З 11-12
{13}
20 км 9/9 300 м
[Sc]
+10.1 +8.5 90 +5 +5 1005.6 1004.0
06 19.06 З 11-12
{13}
20 км 8/8 300 м
[Cu Sc]
+12.5 +9.6 82 +9 +9 1008.1 1006.5
09 19.06 З 7
{12}
20 км 6/6 600 м
[Cu Sc]
+13.3 +9.8 79 +11 +11 1011.5 1009.9
12 19.06 З 5 20 км ясно +14.1 +11.5 84 +12 +13 1013.5 1011.9 +14.2

 

Местоположение метеостанции Анабар (Якутия, Россия): широта 73.22 долгота 113.50 высота над уровнем моря 13 м.

В архиве по умолчанию представлена погода в Анабаре за последнюю неделю. Архивные данные за месяц целиком и за предыдущие месяцы, начиная с января 2011 года, Вы можете получить, выбрав интересующий диапазон дат из раскрывающегося списка и нажав кнопку "Ввод!".


*Определитесь, кто Вы:
робот инопланетянин человек

Внимание! Время в таблицах - всемирное. Для получения местного времени необходимо прибавить поправку, которая равна 9 ч.

Смотрите также архив погоды в соседних городах и на ближайших метеорологических станциях:

Погода в Саскылахе (Якутия, Россия) (140 км)
Погода на Острове Преображения (Якутия, Россия) (162 км)
Погода на Усть-Оленеке (Якутия, Россия) (205 км)
Погода в Джалинде (Якутия, Россия) (344 км)
Погода в Тюмяти (Якутия, Россия) (363 км)
Погода в Хатанге (Красноярский край, Россия) (391 км)
Погода на Столб Острове (Якутия, Россия) (430 км)
Погода в Оленеке (Якутия, Россия) (526 км)
Погода на Мысе Быков (Якутия, Россия) (534 км)
Погода в Сухане (Якутия, Россия) (540 км)

Пояснения к столбцам:

Ветер - указаны скорость ветра в м/с - средняя за 10 мин, порывы в срок и между сроками (в фигурных скобках) и направление, откуда дует ветер: С - северный, СВ - северо-восточный, В - восточный, ЮВ - юго-восточный, Ю - южный, ЮЗ - юго-западный, З - западный, СЗ - северо-западный.
Видимость - горизонтальная дальность видимости в метрах или километрах. При видимости от 1 до 10 км при отсутствии осадков обычно наблюдается дымка, при ухудшении видимости до 1 км и менее - туман. В сухую погоду видимость может ухудшаться дымом, пылью или мглою.
Явления - указаны атмосферные явления, наблюдавшиеся в срок или в последний час перед сроком; фигурными скобками обозначены явления, наблюдавшиеся между сроками (за 1-3 часа до срока); квадратными скобками обозначены град или гололедные отложения с указанием их диаметра в мм.
Облачность - указаны через наклонную черту общая и нижняя облачность в баллах и высота нижней границы облаков в метрах; квадратными скобками обозначены формы облаков: Ci - перистые, Cs - перисто-слоистые, Cc - перисто-кучевые, Ac - высококучевые, As - высокослоистые, Sc - слоисто-кучевые, Ns - слоисто-дождевые, Cu - кучевые, Cb - кучево-дождевые. Подробнее классификацию облаков см. в Атласе облаков (PDF).
T - Температура воздуха - температура, измеренная на высоте 2 м над землей.
Td - Температура точки росы - температура, при понижении до которой содержащийся в воздухе водяной пар достигнет насыщения.
f - Относительная влажность воздуха - влажноcть воздуха, измеренная на высоте 2 м над землей.
Te - Эффективная температура - температура, которую ощущает одетый по сезону человек в тени. Характеристика душности погоды. При расчете учитывается влияние влажности воздуха и скорости ветра на теплоощущения человека.
Tes - Эффективная температура на солнце - температура, которую ощущает человек, с поправкой на солнечный нагрев. Характеристика знойности погоды. Зависит от высоты солнца над горизонтом, облачности и скорости ветра. Ночью, в пасмурную погоду, а также при ветре 12 м/с и более поправка равна нулю.
P - Атмосферное давление - приведенное к уровню моря атмосферное давление.
Po - Атмосферное давление - измеренное на уровне метеостанции атмосферное давление.
Tmin - Минимальная температура - минимум температуры воздуха на высоте 2 м над землей.
Tmax - Максимальная температура - максимум температуры воздуха на высоте 2 м над землей.
R - Количество осадков - Количество выпавших осадков за период времени, мм. При наведении курсора мыши на число - период времени, за который выпало указанное количество осадков.
R24 - Количество осадков - Количество выпавших осадков за 24 часа, мм.
S - Снежный покров - Высота снежного покрова, см. При наведении курсора мыши на число - состояние снежного покрова и степень покрытия местности в баллах.